Location: Marcé
(47.5801°N, 0.3280°W)
Time: 16:06:41
(UTC+01:00)

Vanguard 3 - Pass Details

Date: 07 December 2021
Orbit: 508 x 3260 km, 33.3° (Epoch: 20 January)

Event Time Altitude Azimuth Distance (km) Brightness Sun altitude
Rises 08:07:50 0° 270° (W) 7,229 11.4 -4.8°
Reaches altitude 10° 08:13:19 10° 264° (W) 6,129 11.1 -4.0°
Maximum altitude 08:29:31 39° 206° (SSW) 3,509 10.5 -1.7°
Drops below altitude 10° 08:40:48 10° 143° (SE) 4,293 12.4 -0.1°
Sets 08:43:54 0° 135° (SE) 4,943 13.5 0.3°
